Skip Page Navigation
NASA JPL Caltech
NASA Logo - Jet Propulsion Laboratory + View the NASA Portal
+ Center for Near-Earth Object Studies
JPL Home Earth Solar System Stars & Galaxies Technology
JPL Solar System Dynamics
BODIES ORBITS EPHEMERIDES TOOLS PHYSICAL DATA DISCOVERY FAQ SITE MAP
IMPORTANT: The SSD Announcement email list is now available. Major changes are coming in the near future, including possible hostname and/or URL changes. To be notified of such changes, subscribe to this email list.

Please visit this page for more details.


JPL Small-Body Database Browser
Search: [ help ]  
277621 (2006 BZ23)
Classification: Main-belt Asteroid          SPK-ID: 2277621
Ephemeris | Orbit Diagram | Orbital Elements | Mission Design | Physical Parameters | Discovery Circumstances ]

[ show orbit diagram ]
Orbital Elements at Epoch 2458600.5 (2019-Apr-27.0) TDB
Reference: JPL 14 (heliocentric ecliptic J2000)
 Element Value Uncertainty (1-sigma)   Units 
e .1036365123431915 8.2178e-08  
a 2.754018936787536 3.2374e-08 au
q 2.468602019251771 2.3968e-07 au
i 11.28863168841499 8.5434e-06 deg
node 319.2263709398896 2.5547e-05 deg
peri 176.1309226532636 3.756e-05 deg
M 330.0798513832204 2.8471e-05 deg
tp 2458739.242672497258
(2019-Sep-12.74267250)
0.00013332 TDB
period 1669.355414598506
4.57
2.9435e-05
8.059e-08
d
yr
n .2156520995180544 3.8025e-09 deg/d
Q 3.0394358543233 3.5729e-08 au
  Orbit Determination Parameters
   # obs. used (total)      361  
   data-arc span      6618 days (18.12 yr)  
   first obs. used      2000-12-19  
   last obs. used      2019-02-01  
   planetary ephem.      DE431  
   SB-pert. ephem.      SB431-N16  
   condition code      0  
   norm. resid. RMS      .65295  
   source      ORB  
   producer      Otto Matic  
   solution date      2019-Jul-14 06:45:24  

Additional Information
 Earth MOID = 1.48296 au 
 Jupiter MOID = 2.00015 au 
 T_jup = 3.309 
[ show covariance matrix ]

Ephemeris | Orbit Diagram | Orbital Elements | Mission Design | Physical Parameters | Discovery Circumstances ]

Physical Parameter Table
Parameter Symbol Value Units Sigma Reference Notes
absolute magnitude H 15.7   n/a MPO427524  

277621 (2006 BZ23)          Discovered 2006-Jan-23 by CSS at Catalina
Reference: 20110517/Numbers.arcLast Updated: 2011-05-20
Ephemeris | Orbit Diagram | Orbital Elements | Mission Design | Physical Parameters | Discovery Circumstances ]
ABOUT SSD CREDITS/AWARDS PRIVACY/COPYRIGHT GLOSSARY LINKS
FirstGov 2019-Dec-11 00:56 UT
(server date/time)  
NASA Home Page
Site Manager:   Ryan S. Park
Webmaster  Alan B. Chamberlin